Find Capella 14

NORAD ID: 59444 Int'l Des: 2024-066 Owner: CAPSP Country: US operational
LEOCIRCULAR

Current View

Loading 3D Globe...

About Capella 14

Description loading...

Upcoming Passes

Passes for default location (London). Set your location on the main map for personalized predictions.

Altitude History

Loading altitude history...

Two-Line Element Set

1 59444U 24066C 26145.01366002 .00015837 00000-0 89215-3 0 9992
2 59444 45.6051 17.5519 0006584 189.5359 170.5404 15.13118521108974
Epoch: May 25, 2026 • Age: 29 hours

Current Status

Altitude 531.9 km
Velocity 7.60 km/s
Sub-Earth Point 34.02°N, 92.41°E
Launch Date Apr 7, 2024
Age 2.1 years
Type earth observation

Technical Details

Classification Payload
Mass 180.00 kg
Dry Mass 150.00 kg
Total Mass 180.00 kg
Length 0.50 m
Diameter 0.30 m
Span 3.50 m
Shape Box+ pan + Dish+boom
Manufacturer CAPSP
Bus Type Acadia
Phase Status In Orbit
Owner/State CAPSP/US

Most Searched